SQ9NFI-4 Weather Reports


Display with metric or nautical units.
time (UTC)temp
F
wind
direction
speed
MPH
gust
MPH
rain 1hr
in
rain 24hr
in
rain mn
in
humidity
%
barometer
mb
20260905042153 61 281 4.0 6.0 0.00 0.00 0.03 94 1014.6
20260905041653 61 307 4.0 6.0 0.00 0.00 0.03 94 1014.6
20260905041153 61 280 5.0 6.0 0.00 0.00 0.03 94 1014.6
20260905040653 61 328 5.0 6.0 0.00 0.00 0.03 94 1014.6
20260905040153 61 291 6.0 6.0 0.00 0.00 0.03 94 1014.2
20260905035654 61 321 3.0 5.0 0.00 0.00 0.03 94 1014.2
20260905035153 61 283 1.0 3.0 0.00 0.00 0.03 95 1014.2
20260905034653 61 300 3.0 4.0 0.00 0.00 0.03 94 1014.2
20260905034153 61 297 6.0 8.0 0.00 0.00 0.03 94 1014.2
20260905033653 61 317 3.0 5.0 0.00 0.00 0.03 95 1013.9
20260905033153 61 323 4.0 6.0 0.00 0.00 0.03 95 1013.9
20260905032653 61 281 3.0 3.0 0.00 0.00 0.03 95 1013.9
20260905032153 61 308 2.0 3.0 0.00 0.00 0.03 95 1013.9
20260905031653 61 275 3.0 4.0 0.00 0.00 0.03 94 1013.9
20260905031153 61 317 2.0 2.0 0.00 0.00 0.03 95 1013.6
20260905030653 61 246 4.0 4.0 0.00 0.00 0.03 94 1013.6
20260905030153 61 314 2.0 3.0 0.00 0.00 0.03 94 1013.9
20260905025653 61 250 2.0 2.0 0.00 0.00 0.03 94 1013.9
20260905025153 61 280 3.0 3.0 0.00 0.00 0.03 94 1013.9
20260905024653 62 312 3.0 4.0 0.00 0.00 0.03 93 1013.9
20260905024153 61 276 8.0 10.0 0.00 0.00 0.03 93 1013.9
20260905023653 61 318 4.0 6.0 0.00 0.00 0.03 94 1013.9
20260905023153 62 299 5.0 6.0 0.00 0.00 0.03 93 1013.9
20260905022653 62 341 4.0 5.0 0.00 0.00 0.03 93 1013.9
20260905022153 62 241 3.0 5.0 0.00 0.00 0.03 94 1013.9
20260905021653 62 253 6.0 7.0 0.00 0.00 0.03 93 1013.9
20260905021153 62 314 6.0 7.0 0.00 0.00 0.03 93 1013.9
20260905020653 62 283 11.0 13.0 0.00 0.00 0.03 92 1013.9
20260905020153 62 309 4.0 7.0 0.00 0.00 0.03 94 1013.6
20260905015653 62 307 7.0 13.0 0.00 0.00 0.03 93 1013.6
20260905015153 62 319 5.0 9.0 0.00 0.00 0.03 93 1013.6
20260905014653 62 340 7.0 12.0 0.00 0.00 0.03 93 1013.2
20260905014153 62 302 7.0 9.0 0.00 0.00 0.03 94 1013.2
20260905013653 62 254 5.0 7.0 0.00 0.00 0.03 94 1013.9
20260905013153 61 280 5.0 6.0 0.00 0.00 0.03 95 1013.9
20260905012653 61 319 3.0 4.0 0.05 0.00 0.03 95 1013.9
20260905012153 61 326 2.0 2.0 0.05 0.00 0.03 95 1013.9
20260905011653 61 300 3.0 3.0 0.00 0.00 0.02 95 1013.9
20260905011153 61 285 3.0 3.0 0.00 0.00 0.02 94 1013.6
20260905010653 62 271 5.0 7.0 0.00 0.00 0.02 93 1013.6
20260905010153 62 282 7.0 10.0 0.10 0.00 0.02 92 1013.9
20260905005653 62 276 8.0 10.0 0.20 0.00 0.02 91 1013.9
20260905005153 62 310 4.0 6.0 0.15 0.00 0.01 88 1013.9
20260905004653 63 316 6.0 6.0 0.00 0.00 0.00 85 1013.2
20260905004153 63 327 6.0 8.0 0.00 0.00 0.00 83 1013.2
20260905003653 64 310 9.0 11.0 0.00 0.00 0.00 79 1012.5
20260905003153 65 332 6.0 10.0 0.00 0.00 0.00 75 1012.5
20260905002653 65 329 2.0 3.0 0.00 0.00 0.00 73 1012.5
20260905002153 65 297 6.0 6.0 0.00 0.00 0.00 72 1013.6
20260905001653 66 341 14.0 17.0 0.00 0.00 0.00 72 1013.6
20260905001153 66 322 12.0 16.0 0.00 0.00 0.00 70 1013.2
20260905000653 67 324 10.0 15.0 0.00 0.00 0.00 69 1013.2
20260905000153 67 280 9.0 15.0 0.00 0.00 0.00 67 1013.2
20260904235653 67 276 8.0 8.0 0.00 0.00 0.00 67 1013.2
20260904235153 67 321 9.0 10.0 0.00 0.00 0.00 66 1013.2
20260904234653 67 354 13.0 17.0 0.00 0.00 0.00 67 1012.5
20260904234153 67 302 13.0 17.0 0.00 0.00 0.00 66 1012.5
20260904233653 68 355 15.0 17.0 0.00 0.00 0.00 66 1012.5
20260904233153 68 347 21.0 23.0 0.00 0.00 0.00 64 1012.5
20260904232653 69 340 15.0 18.0 0.00 0.00 0.00 64 1012.5
20260904232153 69 358 13.0 16.0 0.00 0.00 0.00 64 1012.2
20260904231653 69 335 7.0 8.0 0.00 0.00 0.00 64 1012.2
20260904231153 69 301 5.0 7.0 0.00 0.00 0.00 65 1012.2
20260904230653 69 310 12.0 13.0 0.00 0.00 0.00 64 1012.2
20260904230153 69 344 10.0 13.0 0.00 0.00 0.00 64 1012.2
20260904225653 69 349 15.0 18.0 0.00 0.00 0.00 64 1012.2
20260904225153 69 264 12.0 17.0 0.00 0.00 0.00 64 1012.2
20260904224653 70 333 19.0 31.0 0.00 0.00 0.00 65 1011.5
20260904224153 70 311 10.0 15.0 0.00 0.00 0.00 67 1011.5
20260904223653 71 313 7.0 8.0 0.00 0.00 0.00 66 1011.5
20260904223153 71 344 3.0 10.0 0.00 0.00 0.00 66 1011.5
20260904222653 71 305 4.0 10.0 0.00 0.00 0.00 67 1011.5
20260904222153 72 310 10.0 10.0 0.00 0.00 0.00 67 1011.5
20260904221653 73 298 5.0 11.0 0.00 0.00 0.00 67 1011.5
20260904221153 73 301 6.0 6.0 0.00 0.00 0.00 67 1011.2
20260904220653 73 302 13.0 16.0 0.00 0.00 0.00 66 1011.2
20260904220153 74 310 9.0 10.0 0.00 0.00 0.00 65 1011.2
20260904215653 74 339 18.0 22.0 0.00 0.00 0.00 64 1011.2
20260904215153 74 320 9.0 10.0 0.00 0.00 0.00 64 1011.2
20260904214653 75 329 16.0 19.0 0.00 0.00 0.00 63 1010.8
20260904214153 75 306 15.0 24.0 0.00 0.00 0.00 61 1010.8
20260904213653 76 330 14.0 17.0 0.00 0.00 0.00 58 1009.5
20260904213153 76 263 11.0 16.0 0.00 0.00 0.00 59 1009.5
20260904212653 75 298 7.0 8.0 0.00 0.00 0.00 59 1009.5
20260904212153 74 272 8.0 11.0 0.00 0.00 0.00 61 1009.5
20260904211653 74 187 6.0 10.0 0.00 0.00 0.00 61 1009.5
20260904211153 74 327 2.0 5.0 0.00 0.00 0.00 61 1009.5
20260904210653 75 359 2.0 6.0 0.00 0.00 0.00 61 1009.5
20260904210153 74 215 4.0 6.0 0.00 0.00 0.00 61 1009.5
20260904205653 74 313 7.0 13.0 0.00 0.00 0.00 61 1009.5
20260904205153 74 302 8.0 10.0 0.00 0.00 0.00 61 1009.5
20260904204653 74 327 5.0 9.0 0.00 0.00 0.00 61 1009.5
20260904204153 74 274 4.0 6.0 0.00 0.00 0.00 61 1009.5
20260904203653 74 246 6.0 10.0 0.00 0.00 0.00 62 1009.5
20260904203153 74 287 4.0 5.0 0.00 0.00 0.00 63 1009.5
20260904202653 74 268 3.0 4.0 0.00 0.00 0.00 63 1009.5
20260904202153 73 279 5.0 6.0 0.00 0.00 0.00 64 1009.5
20260904201653 73 306 3.0 6.0 0.00 0.00 0.00 65 1009.5
20260904201153 72 289 1.0 3.0 0.00 0.00 0.00 68 1009.5
20260904200653 73 328 2.0 7.0 0.00 0.00 0.00 66 1009.5
20260904200153 72 324 0.0 2.0 0.00 0.00 0.00 67 1009.8
20260904195653 72 310 2.0 2.0 0.00 0.00 0.00 68 1009.8
20260904195153 72 268 2.0 5.0 0.00 0.00 0.00 67 1009.8
20260904194653 73 291 4.0 5.0 0.00 0.00 0.00 66 1009.8
20260904194153 73 54 1.0 2.0 0.00 0.00 0.00 66 1009.8
20260904193653 73 245 6.0 6.0 0.00 0.00 0.00 66 1009.8
20260904193153 73 279 4.0 4.0 0.00 0.00 0.00 66 1009.8
20260904192653 73 210 4.0 4.0 0.00 0.00 0.00 65 1009.8
20260904192153 74 320 3.0 5.0 0.00 0.00 0.00 65 1010.5
20260904191653 73 316 6.0 6.0 0.00 0.00 0.00 66 1010.5
20260904191153 73 306 3.0 5.0 0.00 0.00 0.00 65 1010.5
20260904190653 73 271 3.0 6.0 0.00 0.00 0.00 65 1010.5
20260904190153 73 266 5.0 10.0 0.00 0.00 0.00 65 1010.8
20260904185653 73 205 5.0 8.0 0.00 0.00 0.00 67 1010.8
20260904185153 73 166 5.0 7.0 0.00 0.00 0.00 66 1010.8
20260904184653 73 117 4.0 6.0 0.00 0.00 0.00 67 1011.2
20260904184153 73 207 6.0 7.0 0.00 0.00 0.00 67 1011.2
20260904183653 73 170 3.0 3.0 0.00 0.00 0.00 67 1011.2
20260904183153 72 331 0.0 1.0 0.00 0.00 0.00 68 1011.2
20260904182653 73 326 2.0 4.0 0.00 0.00 0.00 67 1011.2
20260904182153 72 296 6.0 6.0 0.00 0.00 0.00 68 1011.2
20260904181653 72 250 3.0 3.0 0.00 0.00 0.00 68 1011.2
20260904181153 72 322 0.0 1.0 0.00 0.00 0.00 67 1011.2
20260904180653 72 297 2.0 2.0 0.00 0.00 0.00 68 1011.2
20260904180153 73 305 1.0 1.0 0.00 0.00 0.00 66 1011.2
20260904175653 73 323 0.0 0.0 0.00 0.00 0.00 65 1011.2
20260904175153 73 293 3.0 6.0 0.00 0.00 0.00 65 1011.2
20260904174653 73 322 0.0 1.0 0.00 0.00 0.00 65 1011.2
20260904174153 74 320 1.0 1.0 0.00 0.00 0.00 65 1011.2
20260904173653 74 318 0.0 0.0 0.00 0.00 0.00 63 1011.2
20260904173153 74 329 3.0 7.0 0.00 0.00 0.00 63 1011.2
20260904172653 74 330 2.0 3.0 0.00 0.00 0.00 62 1011.2
20260904172153 75 337 1.0 3.0 0.00 0.00 0.00 62 1010.8
20260904171653 75 296 5.0 10.0 0.00 0.00 0.00 62 1010.8
20260904171153 75 270 3.0 4.0 0.00 0.00 0.00 63 1010.8
20260904170653 75 253 1.0 4.0 0.00 0.00 0.00 62 1010.8
20260904170153 76 322 6.0 9.0 0.00 0.00 0.00 61 1011.2
20260904165653 76 320 1.0 1.0 0.00 0.00 0.00 61 1011.2
20260904165153 76 229 6.0 6.0 0.00 0.00 0.00 60 1011.2
20260904164653 76 211 4.0 4.0 0.00 0.00 0.00 60 1011.2
20260904164153 76 270 5.0 5.0 0.00 0.00 0.00 60 1011.2
20260904163653 76 299 3.0 6.0 0.00 0.00 0.00 60 1011.2
20260904163153 76 297 5.0 6.0 0.00 0.00 0.00 60 1011.2
20260904162653 77 268 6.0 7.0 0.00 0.00 0.00 59 1011.2
20260904162153 77 322 5.0 9.0 0.00 0.00 0.00 59 1011.2
20260904161653 77 272 7.0 9.0 0.00 0.00 0.00 58 1011.2
20260904161153 78 320 7.0 9.0 0.00 0.00 0.00 58 1011.2
20260904160653 78 291 5.0 15.0 0.00 0.00 0.00 59 1011.2
20260904160153 78 292 10.0 10.0 0.00 0.00 0.00 58 1011.2
20260904155653 78 209 10.0 14.0 0.00 0.00 0.00 58 1011.2
20260904155153 78 313 8.0 10.0 0.00 0.00 0.00 58 1011.2
20260904154653 79 290 5.0 7.0 0.00 0.00 0.00 57 1011.5
20260904154153 79 281 8.0 13.0 0.00 0.00 0.00 56 1011.5
20260904153653 79 283 8.0 8.0 0.00 0.00 0.00 56 1011.5
20260904153153 79 301 3.0 6.0 0.00 0.00 0.00 56 1011.5
20260904152653 80 286 11.0 11.0 0.00 0.00 0.00 55 1011.5
20260904152153 79 165 3.0 5.0 0.00 0.00 0.00 57 1011.5
20260904151653 78 149 6.0 6.0 0.00 0.00 0.00 60 1011.5
20260904151153 78 312 1.0 4.0 0.00 0.00 0.00 60 1011.9
20260904150653 78 310 7.0 10.0 0.00 0.00 0.00 60 1011.9
20260904150153 77 235 5.0 5.0 0.00 0.00 0.00 60 1012.2
20260904145653 77 162 6.0 6.0 0.00 0.00 0.00 60 1012.2
20260904145153 76 287 5.0 9.0 0.00 0.00 0.00 61 1012.2
20260904144653 76 273 5.0 6.0 0.00 0.00 0.00 62 1012.5
20260904144153 76 279 9.0 13.0 0.00 0.00 0.00 61 1012.5
20260904143653 76 184 8.0 12.0 0.00 0.00 0.00 61 1012.5
20260904143153 76 236 3.0 5.0 0.00 0.00 0.00 62 1012.5
20260904142653 76 288 8.0 11.0 0.00 0.00 0.00 61 1012.5
20260904142153 76 276 12.0 18.0 0.00 0.00 0.00 61 1012.5
20260904141653 76 199 8.0 8.0 0.00 0.00 0.00 62 1012.5
20260904141153 76 300 4.0 6.0 0.00 0.00 0.00 61 1012.5
20260904140653 76 318 11.0 13.0 0.00 0.00 0.00 61 1012.5
20260904140153 76 292 13.0 13.0 0.00 0.00 0.00 61 1012.5
20260904135653 76 306 6.0 6.0 0.00 0.00 0.00 61 1012.5
20260904135153 76 304 1.0 1.0 0.00 0.00 0.00 62 1012.5
20260904134653 77 267 11.0 15.0 0.00 0.00 0.00 60 1013.2
20260904134153 77 232 6.0 6.0 0.00 0.00 0.00 59 1013.2
20260904133653 78 259 9.0 14.0 0.00 0.00 0.00 58 1013.2
20260904133153 78 176 11.0 13.0 0.00 0.00 0.00 58 1013.2
20260904132653 78 319 11.0 12.0 0.00 0.00 0.00 58 1013.2
20260904132153 78 210 10.0 13.0 0.00 0.00 0.00 59 1013.6
20260904131653 76 315 12.0 16.0 0.00 0.00 0.00 60 1013.6
20260904131153 76 267 6.0 9.0 0.00 0.00 0.00 60 1013.9
20260904130653 75 194 10.0 10.0 0.00 0.00 0.00 62 1013.9
20260904130153 76 287 6.0 8.0 0.00 0.00 0.00 61 1013.9
20260904125653 75 245 4.0 5.0 0.00 0.00 0.00 62 1013.9
20260904125153 75 294 6.0 10.0 0.00 0.00 0.00 62 1013.9
20260904124653 75 293 3.0 6.0 0.00 0.00 0.00 63 1013.9
20260904124153 74 340 6.0 16.0 0.00 0.00 0.00 64 1013.9
20260904123653 74 180 4.0 10.0 0.00 0.00 0.00 64 1013.9
20260904123153 74 280 6.0 6.0 0.00 0.00 0.00 64 1013.9
20260904122653 74 210 10.0 10.0 0.00 0.00 0.00 64 1014.2
20260904122153 74 162 6.0 7.0 0.00 0.00 0.00 63 1014.2
20260904121653 74 324 10.0 20.0 0.00 0.00 0.00 62 1014.2
20260904121153 75 220 9.0 12.0 0.00 0.00 0.00 62 1014.2
20260904120653 75 172 9.0 11.0 0.00 0.00 0.00 62 1014.2
20260904120153 75 228 10.0 10.0 0.00 0.00 0.00 61 1014.2
20260904115653 76 270 3.0 6.0 0.00 0.00 0.00 60 1014.2
20260904115153 77 301 8.0 8.0 0.00 0.00 0.00 57 1014.6
20260904114653 77 246 4.0 8.0 0.00 0.00 0.00 57 1014.6
20260904114153 78 231 10.0 13.0 0.00 0.00 0.00 56 1014.6
20260904113653 77 282 10.0 19.0 0.00 0.00 0.00 56 1014.6
20260904113153 76 278 4.0 17.0 0.00 0.00 0.00 57 1014.6
20260904112653 78 291 7.0 12.0 0.00 0.00 0.00 55 1014.9
20260904112153 76 244 7.0 10.0 0.00 0.00 0.00 58 1014.9
20260904111653 77 180 14.0 21.0 0.00 0.00 0.00 56 1015.2
20260904111153 78 275 6.0 7.0 0.00 0.00 0.00 55 1015.2
20260904110653 77 293 9.0 13.0 0.00 0.00 0.00 56 1015.2
20260904110153 76 180 9.0 11.0 0.00 0.00 0.00 58 1015.2
20260904105653 74 237 15.0 15.0 0.00 0.00 0.00 59 1015.2
20260904105153 74 287 10.0 11.0 0.00 0.00 0.00 60 1015.2
20260904104653 75 286 8.0 9.0 0.00 0.00 0.00 60 1015.2
20260904104153 74 305 6.0 8.0 0.00 0.00 0.00 61 1015.2
20260904103653 74 238 9.0 15.0 0.00 0.00 0.00 61 1015.2
20260904103153 74 231 9.0 11.0 0.00 0.00 0.00 59 1015.2
20260904102653 74 300 6.0 9.0 0.00 0.00 0.00 61 1015.2
20260904102153 74 289 10.0 15.0 0.00 0.00 0.00 61 1015.2
20260904101653 75 223 10.0 15.0 0.00 0.00 0.00 58 1015.2
20260904101153 76 336 13.0 21.0 0.00 0.00 0.00 58 1015.2
20260904100653 76 294 9.0 10.0 0.00 0.00 0.00 59 1015.2
20260904100153 77 245 6.0 6.0 0.00 0.00 0.00 60 1015.9
20260904095653 77 186 3.0 5.0 0.00 0.00 0.00 61 1015.9
20260904095153 74 280 6.0 6.0 0.00 0.00 0.00 61 1015.9
20260904094653 75 289 6.0 10.0 0.00 0.00 0.00 62 1015.9
20260904094153 73 245 4.0 13.0 0.00 0.00 0.00 63 1015.9
20260904093653 74 237 3.0 6.0 0.00 0.00 0.00 65 1016.3
20260904093153 73 290 6.0 10.0 0.00 0.00 0.00 67 1016.3
20260904092653 73 338 6.0 10.0 0.00 0.00 0.00 64 1016.6
20260904092153 73 286 11.0 11.0 0.00 0.00 0.00 63 1016.6
20260904091653 73 284 6.0 10.0 0.00 0.00 0.00 65 1016.6
20260904091153 73 299 5.0 5.0 0.00 0.00 0.00 65 1016.6
20260904090653 73 171 6.0 6.0 0.00 0.00 0.00 65 1016.6
20260904090153 72 278 9.0 10.0 0.00 0.00 0.00 65 1016.6
20260904085653 73 275 9.0 15.0 0.00 0.00 0.00 65 1016.6
20260904085153 73 295 14.0 14.0 0.00 0.00 0.00 66 1016.6
20260904084653 73 269 7.0 7.0 0.00 0.00 0.00 67 1016.6
20260904084153 72 278 6.0 7.0 0.00 0.00 0.00 66 1016.6
20260904083653 72 294 5.0 9.0 0.00 0.00 0.00 67 1016.9
20260904083153 73 312 5.0 5.0 0.00 0.00 0.00 66 1016.9
20260904082653 73 228 9.0 14.0 0.00 0.00 0.00 66 1016.6
20260904082153 74 316 6.0 6.0 0.00 0.00 0.00 67 1016.6
20260904081653 73 343 11.0 13.0 0.00 0.00 0.00 65 1016.6
20260904081153 73 320 6.0 6.0 0.00 0.00 0.00 67 1016.6
20260904080653 72 315 8.0 8.0 0.00 0.00 0.00 66 1016.6
20260904080153 71 286 9.0 9.0 0.00 0.00 0.00 68 1016.9
20260904075653 72 327 4.0 6.0 0.00 0.00 0.00 70 1016.9
20260904075153 71 233 4.0 6.0 0.00 0.00 0.00 72 1016.9
20260904074653 69 312 3.0 10.0 0.00 0.00 0.00 73 1016.9
20260904074153 69 285 10.0 10.0 0.00 0.00 0.00 72 1016.9
20260904073653 69 270 7.0 8.0 0.00 0.00 0.00 73 1017.3
20260904073153 69 165 5.0 5.0 0.00 0.00 0.00 75 1017.3
20260904072653 67 286 2.0 2.0 0.00 0.00 0.00 76 1017.3
20260904072153 67 281 2.0 2.0 0.00 0.00 0.00 77 1017.3
20260904071653 67 268 5.0 7.0 0.00 0.00 0.00 77 1017.3
20260904071153 67 313 3.0 8.0 0.00 0.00 0.00 78 1017.3
20260904070653 67 335 4.0 6.0 0.00 0.00 0.00 77 1017.3
20260904070153 67 294 5.0 6.0 0.00 0.00 0.00 77 1017.3
20260904065653 67 293 2.0 3.0 0.00 0.00 0.00 78 1017.3
20260904065153 67 293 2.0 3.0 0.00 0.00 0.00 78 1017.3
20260904064903 67 315 4.0 4.0 0.00 0.00 0.00 78 1017.3
20260904064403 66 242 3.0 6.0 0.00 0.00 0.00 79 1017.3
20260904063903 66 295 6.0 10.0 0.00 0.00 0.00 79 1017.3
20260904063403 65 333 5.0 9.0 0.00 0.00 0.00 80 1017.3
20260904062903 65 302 9.0 13.0 0.00 0.00 0.00 79 1017.3
20260904062403 65 268 4.0 4.0 0.00 0.00 0.00 79 1017.3
20260904061903 65 311 4.0 9.0 0.00 0.00 0.00 78 1017.3
20260904061403 65 299 10.0 10.0 0.00 0.00 0.00 79 1016.9
20260904060903 65 304 3.0 5.0 0.00 0.00 0.00 80 1016.9
20260904060403 65 239 2.0 2.0 0.00 0.00 0.00 80 1016.9
20260904055903 65 272 1.0 3.0 0.00 0.00 0.00 80 1016.9
20260904055403 65 322 4.0 5.0 0.00 0.00 0.00 79 1016.9
20260904054903 65 319 1.0 2.0 0.00 0.00 0.00 79 1016.9
20260904054403 65 294 10.0 13.0 0.00 0.00 0.00 79 1016.9
20260904053903 65 312 8.0 13.0 0.00 0.00 0.00 79 1016.9
20260904053403 65 286 4.0 4.0 0.00 0.00 0.00 80 1017.3
20260904052903 64 300 1.0 1.0 0.00 0.00 0.00 81 1017.3
20260904052403 64 308 4.0 6.0 0.00 0.00 0.00 80 1016.9
20260904051903 64 270 2.0 4.0 0.00 0.00 0.00 81 1016.9
20260904051403 64 265 2.0 3.0 0.00 0.00 0.00 81 1017.3
20260904050903 64 292 3.0 5.0 0.00 0.00 0.00 81 1017.3
20260904050403 64 337 4.0 6.0 0.00 0.00 0.00 82 1017.3
20260904045903 64 327 2.0 5.0 0.00 0.00 0.00 82 1016.9
20260904045403 63 231 4.0 6.0 0.00 0.00 0.00 83 1016.9
20260904044903 62 322 0.0 1.0 0.00 0.00 0.00 84 1016.9
20260904044403 62 308 1.0 2.0 0.00 0.00 0.00 84 1016.9
20260904043904 62 327 0.0 0.0 0.00 0.00 0.00 84 1016.9
20260904043403 62 270 2.0 4.0 0.00 0.00 0.00 84 1016.9
20260904042903 62 302 1.0 1.0 0.00 0.00 0.00 84 1016.9